Location: Kitchener-Waterloo
(43.4500°N, 80.5000°W)
Time: 03:31:01
(UTC-05:00)

Amateur Radio Satellites - All Passes

Search period start: 18 December 2014 03:01
Search period end: 19 December 2014 03:01
Location: Kitchener-Waterloo, 43.4500°N, 80.5000°W

Satellite Date Start Highest point End Downlink Frequencies (MHz)
Time Altitude Azimuth
Gurwin Techsat 1B 18 Dec 03:02:14 03:07:32 69° 102° (ESE) 03:12:49 435.225
AO-7 18 Dec 03:05:51 03:10:59 17° 89° (E) 03:16:04 29.400- 29.500
Oscar 19 18 Dec 03:16:52 03:20:56 24° 297° (WNW) 03:25:00 437.125/150
ITAMSAT 1 18 Dec 03:25:09 03:30:07 48° 290° (WNW) 03:35:03 435.822/435.867
HORYU 2 18 Dec 03:29:09 03:33:34 50° 100° (E) 03:37:57 437.375
AIST 1 18 Dec 03:30:40 03:34:28 30° 74° (ENE) 03:38:14
STARS 18 Dec 03:52:28 03:53:50 11° 271° (W) 03:55:13 437.465
GONETS M04 18 Dec 04:28:18 04:33:42 18° 76° (ENE) 04:39:04
MOZHAYETS 4 18 Dec 04:33:42 04:38:21 84° 257° (WSW) 04:43:03
Gurwin Techsat 1B 18 Dec 04:43:29 04:46:57 18° 300° (WNW) 04:50:24 435.225
PRISM 18 Dec 04:47:53 04:51:14 23° 66° (ENE) 04:54:35 437.425
STRAND 1 18 Dec 04:50:53 04:53:26 14° 58° (ENE) 04:55:59 437.568
AO-7 18 Dec 04:56:29 05:04:56 84° 108° (ESE) 05:13:18 29.400- 29.500
HORYU 2 18 Dec 05:06:47 05:09:52 18° 297° (WNW) 05:12:55 437.375
PHONESAT 2.4 18 Dec 05:07:34 05:10:36 25° 158° (SSE) 05:13:39 2401.200-2431.200
VERMONT LUNAR 18 Dec 05:07:34 05:10:45 32° 162° (SSE) 05:13:56 437.305
AIST 1 18 Dec 05:08:36 05:11:58 23° 272° (W) 05:15:19
JAS-2 18 Dec 05:30:32 05:36:22 70° 102° (ESE) 05:41:38 435.910
SO-50 18 Dec 05:45:42 05:50:05 32° 45° (NE) 05:54:30 436.795
CUBESAT XI-V 18 Dec 05:48:40 05:53:08 45° 71° (ENE) 05:57:35 437.345
Cubesat XI-IV 18 Dec 05:57:49 06:02:22 28° 95° (E) 06:06:52 437.490
GONETS M04 18 Dec 06:20:18 06:29:09 86° 96° (E) 06:38:02
PRISM 18 Dec 06:22:45 06:26:35 33° 263° (W) 06:30:27 437.425
STRAND 1 18 Dec 06:26:48 06:31:55 85° 256° (WSW) 06:37:04 437.568
CUTE-I 18 Dec 06:31:30 06:36:43 55° 101° (E) 06:41:55 437.470
VERMONT LUNAR 18 Dec 06:45:20 06:48:48 53° 179° (S) 06:52:15 437.305
PHONESAT 2.4 18 Dec 06:45:25 06:48:57 51° 174° (S) 06:52:30 2401.200-2431.200
AO-7 18 Dec 06:50:22 06:56:48 26° 308° (NW) 07:03:14 29.400- 29.500
JAS-2 18 Dec 07:16:57 07:20:43 18° 303° (WNW) 07:24:17 435.910
SO-50 18 Dec 07:26:10 07:30:43 39° 244° (WSW) 07:35:16 436.795
CUBESAT XI-V 18 Dec 07:27:24 07:30:47 20° 268° (W) 07:34:10 437.345
Cubesat XI-IV 18 Dec 07:37:37 07:42:32 40° 292° (WNW) 07:47:27 437.490
HO-68 18 Dec 07:41:06 07:43:53 12° 86° (E) 07:46:40 435.675
CUTE-I 18 Dec 08:12:27 08:16:23 22° 298° (WNW) 08:20:20 437.470
GOMX 1 18 Dec 08:14:53 08:17:05 13° 90° (E) 08:19:20 467.674
GONETS M04 18 Dec 08:20:41 08:27:10 22° 298° (WNW) 08:33:42
VERMONT LUNAR 18 Dec 08:23:37 08:26:53 35° 196° (SSW) 08:30:09 437.305
PHONESAT 2.4 18 Dec 08:23:57 08:27:26 43° 192° (SSW) 08:30:54 2401.200-2431.200
AAUSAT CUBESAT 2 18 Dec 08:37:37 08:40:15 16° 91° (E) 08:42:51 437.432
CANX-2 18 Dec 08:40:21 08:44:08 29° 95° (E) 08:47:54 2200.000
DOVE 4 18 Dec 08:51:54 08:55:40 23° 94° (E) 08:59:35 437.250
TIGRISAT 18 Dec 08:52:40 08:54:51 14° 61° (ENE) 08:57:03 435.000
COMPASS 1 18 Dec 09:09:52 09:13:54 40° 98° (E) 09:17:53 437.405
BRITE-PL 18 Dec 09:10:23 09:14:57 63° 101° (E) 09:19:52 437.365/2234.400
CUTE 1.7 + AOD 2 18 Dec 09:11:13 09:15:30 58° 100° (E) 09:19:44 437.475
SEEDS 18 Dec 09:11:31 09:15:42 50° 99° (E) 09:19:52 437.485
DX 1 18 Dec 09:12:11 09:14:32 14° 91° (E) 09:16:52 434.975-435.025
UNISAT 6 18 Dec 09:18:41 09:22:15 25° 66° (ENE) 09:25:53 437.425
MaSat-1 18 Dec 09:19:19 09:21:21 25° 112° (ESE) 09:23:19 437.345
POPSAT HIP 1 18 Dec 09:23:48 09:26:41 18° 64° (ENE) 09:29:34 437.405
HO-68 18 Dec 09:25:35 09:32:46 74° 105° (ESE) 09:39:53 435.675
CINEMA 3 18 Dec 09:37:10 09:41:34 39° 98° (E) 09:46:07 145.822/145.860
Oscar 11 18 Dec 09:38:13 09:42:16 36° 97° (E) 09:46:17 145.826/435.025
CUBEBUG 2 18 Dec 09:39:02 09:42:53 26° 95° (E) 09:46:48 437.445
DELFI C3 18 Dec 09:43:05 09:46:51 33° 97° (E) 09:50:35 145.870
UKube-1 18 Dec 09:45:05 09:48:56 31° 97° (E) 09:52:46 .
HUMSAT D 18 Dec 09:48:26 09:50:26 13° 90° (E) 09:52:26 437.325/437.525
ANTELSAT 18 Dec 09:49:31 09:53:44 51° 72° (ENE) 09:58:04 437.575/2403.000
GOMX 1 18 Dec 09:50:57 09:55:35 72° 285° (WNW) 10:00:33 467.674
DUCHIFAT 1 18 Dec 09:52:07 09:55:55 35° 70° (ENE) 09:59:45 145.980
VELOX 1 18 Dec 09:55:12 09:57:33 14° 91° (E) 09:59:54 145.980
ZACube-1 18 Dec 10:01:24 10:05:25 31° 96° (E) 10:09:29 437.345
PHONESAT 2.4 18 Dec 10:03:10 10:05:38 17° 208° (SSW) 10:08:06 2401.200-2431.200
VERMONT LUNAR 18 Dec 10:03:12 10:04:37 12° 211° (SSW) 10:06:02 437.305
QB50P2 18 Dec 10:03:24 10:07:26 47° 72° (ENE) 10:11:30 145.880/145.840
BUGSAT 1 18 Dec 10:04:21 10:08:09 38° 71° (ENE) 10:11:56 437.445
CUSAT 1 18 Dec 10:04:52 10:08:14 59° 95° (E) 10:12:45 437.405
POLYITAN 1 18 Dec 10:11:08 10:15:16 57° 73° (ENE) 10:19:25 437.675
AAUSAT CUBESAT 2 18 Dec 10:12:05 10:16:10 47° 288° (WNW) 10:20:13 437.432
NANOSAT C BR1 18 Dec 10:15:46 10:19:55 64° 74° (ENE) 10:24:06 145.865
CANX-2 18 Dec 10:16:21 10:19:59 27° 292° (WNW) 10:23:37 2200.000
UWE-3 18 Dec 10:22:28 10:27:00 62° 101° (E) 10:31:35 435.000/436.395/437.385
TIGRISAT 18 Dec 10:26:45 10:31:02 66° 259° (WSW) 10:35:28 435.000
FUNcube-1 18 Dec 10:28:41 10:33:09 60° 101° (E) 10:37:39 145.935
DOVE 4 18 Dec 10:29:10 10:33:31 40° 289° (WNW) 10:38:07 437.250
QB50P1 18 Dec 10:29:39 10:33:51 89° 257° (WSW) 10:38:06 145.935-145.965
O/OREOS (USA 219) 18 Dec 10:29:54 10:34:00 33° 59° (ENE) 10:38:06 437.305
YUBILEINY 18 Dec 10:35:03 10:43:04 39° 71° (ENE) 10:51:03 435.215
AISAT 18 Dec 10:35:24 10:39:33 38° 98° (E) 10:43:41 437.250
DANDE 18 Dec 10:43:51 10:47:07 57° 285° (WNW) 10:51:28 436.750
COMPASS 1 18 Dec 10:46:15 10:49:21 20° 295° (WNW) 10:52:25 437.405
DX 1 18 Dec 10:46:52 10:51:07 55° 288° (WNW) 10:55:21 434.975-435.025
SEEDS 18 Dec 10:48:25 10:51:08 17° 296° (WNW) 10:53:51 437.485
CUTE 1.7 + AOD 2 18 Dec 10:48:32 10:50:57 15° 297° (WNW) 10:53:23 437.475
BRITE-PL 18 Dec 10:50:23 10:53:05 16° 296° (WNW) 10:55:53 437.365/2234.400
CUBEBUG 1 18 Dec 10:51:47 10:55:07 21° 94° (E) 10:58:27 437.445
UNISAT 6 18 Dec 10:54:59 10:58:54 32° 264° (W) 11:02:55 437.425
POPSAT HIP 1 18 Dec 10:58:17 11:02:16 42° 261° (W) 11:06:18 437.405
HO-68 18 Dec 11:14:19 11:19:48 25° 304° (NW) 11:25:15 435.675
Oscar 11 18 Dec 11:14:50 11:18:14 22° 294° (WNW) 11:21:37 145.826/435.025
CINEMA 3 18 Dec 11:14:50 11:18:34 24° 293° (WNW) 11:22:25 145.822/145.860
CUBEBUG 2 18 Dec 11:15:27 11:19:36 34° 290° (WNW) 11:23:50 437.445
DELFI C3 18 Dec 11:18:46 11:21:56 22° 294° (WNW) 11:25:05 145.870
Oscar 19 18 Dec 11:19:59 11:21:30 11° 56° (NE) 11:23:00 437.125/150
50 SAT 18 Dec 11:20:45 11:24:54 77° 285° (WNW) 11:29:03 437.505
UKube-1 18 Dec 11:21:24 11:24:59 26° 294° (WNW) 11:28:33 .
HUMSAT D 18 Dec 11:22:21 11:26:36 61° 286° (WNW) 11:30:53 437.325/437.525
ESTCUBE 1 18 Dec 11:22:55 11:27:18 49° 100° (E) 11:31:39 437.505/2401.250
ANTELSAT 18 Dec 11:28:15 11:30:52 16° 270° (W) 11:33:33 437.575/2403.000
DUCHIFAT 1 18 Dec 11:28:41 11:31:52 21° 266° (W) 11:35:05 145.980
VELOX 1 18 Dec 11:30:09 11:34:30 57° 287° (WNW) 11:38:49 145.980
ZACube-1 18 Dec 11:37:53 11:41:42 28° 292° (WNW) 11:45:33 437.345
BUGSAT 1 18 Dec 11:40:54 11:43:47 18° 267° (W) 11:46:39 437.445
QB50P2 18 Dec 11:41:03 11:43:37 16° 268° (W) 11:46:12 145.880/145.840
POLYITAN 1 18 Dec 11:49:39 11:51:35 13° 270° (W) 11:53:31 437.675
CUSAT 1 18 Dec 11:51:12 11:52:20 11° 304° (NW) 11:53:33 437.405
RS-15 18 Dec 11:52:33 12:02:47 48° 111° (ESE) 12:13:01 29.354- 29.394
NANOSAT C BR1 18 Dec 11:54:48 11:56:14 12° 270° (W) 11:57:40 145.865
UWE-3 18 Dec 12:00:22 12:03:04 16° 297° (WNW) 12:05:48 435.000/436.395/437.385
FUNcube-1 18 Dec 12:06:22 12:09:02 16° 297° (WNW) 12:11:44 145.935
O/OREOS (USA 219) 18 Dec 12:09:32 12:13:16 26° 257° (WSW) 12:17:00 437.305
SPROUT 18 Dec 12:09:53 12:13:51 35° 97° (E) 12:17:47 437.525
AISAT 18 Dec 12:12:33 12:15:57 22° 295° (WNW) 12:19:22 437.250
TISAT 1 18 Dec 12:15:05 12:19:07 42° 99° (E) 12:23:07 437.305
CUBEBUG 1 18 Dec 12:27:38 12:31:35 36° 290° (WNW) 12:35:32 437.445
YUBILEINY 18 Dec 12:31:49 12:40:01 49° 272° (W) 12:48:12 435.215
Gurwin Techsat 1B 18 Dec 12:47:05 12:50:28 18° 60° (ENE) 12:53:53 435.225
Oscar 19 18 Dec 12:54:49 12:59:56 77° 74° (ENE) 13:05:07 437.125/150
ESTCUBE 1 18 Dec 13:00:45 13:03:48 18° 297° (WNW) 13:06:51 437.505/2401.250
ITAMSAT 1 18 Dec 13:05:18 13:10:03 38° 68° (ENE) 13:14:49 435.822/435.867
BEESAT 2 18 Dec 13:23:20 13:26:11 18° 111° (ESE) 13:29:05 435.950
M-CUBED/EXP-1 PRIME 18 Dec 13:24:04 13:25:59 13° 93° (E) 13:27:50 437.505
ITUPSAT 1 18 Dec 13:26:18 13:30:43 36° 97° (E) 13:35:04 437.325
SWISSCUBE 18 Dec 13:26:51 13:31:21 40° 98° (E) 13:35:48 437.505
SPROUT 18 Dec 13:46:24 13:49:44 22° 294° (WNW) 13:53:05 437.525
TISAT 1 18 Dec 13:51:43 13:54:39 19° 295° (WNW) 13:57:34 437.305
BEESAT 18 Dec 13:52:14 13:57:00 67° 102° (ESE) 14:01:44 436.000
ISS 18 Dec 13:59:17 14:01:31 17° 133° (SE) 14:03:46 145.825
KKS-1 18 Dec 14:00:43 14:03:42 17° 92° (E) 14:06:39 437.445
STARS 18 Dec 14:03:32 14:05:18 12° 90° (E) 14:07:03 437.465
RS-15 18 Dec 14:04:21 14:14:59 55° 315° (NW) 14:25:48 29.354- 29.394
AO-7 18 Dec 14:05:47 14:12:41 30° 55° (NE) 14:19:36 29.400- 29.500
AIST 2 18 Dec 14:15:18 14:19:00 30° 115° (ESE) 14:22:46 435.215
BEESAT 3 18 Dec 14:22:20 14:26:26 83° 123° (ESE) 14:30:37 437.485
Gurwin Techsat 1B 18 Dec 14:24:34 14:29:52 70° 258° (WSW) 14:35:11 435.225
HORYU 2 18 Dec 14:28:45 14:33:06 53° 72° (ENE) 14:37:29 437.375
PCSat 18 Dec 14:31:53 14:37:14 65° 117° (ESE) 14:42:37 145.827
AUBIESAT-1 18 Dec 14:33:17 14:37:43 65° 106° (ESE) 14:41:45 437.475
Oscar 19 18 Dec 14:37:26 14:39:52 13° 271° (W) 14:42:19 437.125/150
ITAMSAT 1 18 Dec 14:45:12 14:49:37 28° 265° (W) 14:54:03 435.822/435.867
M-CUBED/EXP-1 PRIME 18 Dec 14:57:04 15:01:33 64° 292° (WNW) 15:05:38 437.505
BEESAT 2 18 Dec 15:00:06 15:04:06 47° 309° (NW) 15:08:10 435.950
ITUPSAT 1 18 Dec 15:04:29 15:08:27 26° 294° (WNW) 15:12:23 437.325
SWISSCUBE 18 Dec 15:05:11 15:08:58 24° 295° (WNW) 15:12:44 437.505
BEESAT 18 Dec 15:31:32 15:34:18 16° 299° (WNW) 15:37:04 436.000
ISS 18 Dec 15:34:31 15:37:48 65° 330° (NNW) 15:41:05 145.825
KKS-1 18 Dec 15:36:17 15:40:35 48° 289° (WNW) 15:44:53 437.445
STARS 18 Dec 15:37:49 15:42:13 67° 286° (WNW) 15:46:37 437.465
JAS-2 18 Dec 15:41:56 15:48:57 41° 67° (ENE) 15:55:25 435.910
AIST 2 18 Dec 15:53:45 15:57:35 32° 313° (NW) 16:01:28 435.215
AO-7 18 Dec 15:56:33 16:04:49 70° 255° (WSW) 16:13:12 29.400- 29.500
AIST 1 18 Dec 16:02:31 16:05:27 18° 86° (E) 16:08:23
BEESAT 3 18 Dec 16:02:44 16:05:11 15° 322° (NW) 16:07:40 437.485
HORYU 2 18 Dec 16:07:26 16:10:06 16° 269° (W) 16:12:46 437.375
AUBIESAT-1 18 Dec 16:09:32 16:12:05 15° 305° (NW) 16:14:31 437.475
PCSat 18 Dec 16:16:48 16:21:06 24° 316° (NW) 16:25:26 145.827
CUTE-I 18 Dec 16:17:39 16:20:35 15° 58° (ENE) 16:23:31 437.470
RS-15 18 Dec 16:21:50 16:30:33 26° 347° (NNW) 16:39:28 29.354- 29.394
MOZHAYETS 4 18 Dec 16:28:40 16:32:14 22° 93° (E) 16:35:47
GONETS M04 18 Dec 16:29:28 16:37:51 46° 73° (ENE) 16:46:06
ISS 18 Dec 17:12:11 17:14:50 22° 349° (N) 17:17:28 145.825
Cubesat XI-IV 18 Dec 17:20:52 17:26:01 52° 70° (ENE) 17:31:10 437.490
JAS-2 18 Dec 17:26:34 17:33:52 45° 262° (W) 17:40:40 435.910
AIST 1 18 Dec 17:38:37 17:42:47 41° 283° (WNW) 17:46:56
CUTE-I 18 Dec 17:54:38 17:59:58 83° 256° (WSW) 18:05:19 437.470
AO-7 18 Dec 17:55:33 17:59:04 13° 274° (W) 18:02:37 29.400- 29.500
PRISM 18 Dec 18:04:42 18:08:24 30° 97° (E) 18:12:03 437.425
MOZHAYETS 4 18 Dec 18:05:17 18:09:37 40° 290° (WNW) 18:13:54
HO-68 18 Dec 18:12:22 18:15:36 14° 48° (NE) 18:18:50 435.675
GONETS M04 18 Dec 18:26:34 18:34:33 41° 274° (W) 18:42:28
STRAND 1 18 Dec 18:36:38 18:41:04 29° 96° (E) 18:45:29 437.568
RS-15 18 Dec 18:38:23 18:47:44 30° 22° (NNE) 18:57:21 29.354- 29.394
MaSat-1 18 Dec 18:49:07 18:51:29 68° 63° (ENE) 18:53:59 437.345
ISS 18 Dec 18:49:36 18:52:13 21° 10° (N) 18:54:49 145.825
CUSAT 1 18 Dec 18:59:19 19:03:25 15° 60° (ENE) 19:07:47 437.405
Cubesat XI-IV 18 Dec 19:02:22 19:06:23 22° 267° (W) 19:10:25 437.490
CUBESAT XI-V 18 Dec 19:21:30 19:26:08 83° 284° (WNW) 19:30:43 437.345
GOMX 1 18 Dec 19:25:25 19:27:33 14° 62° (ENE) 19:29:42 467.674
AAUSAT CUBESAT 2 18 Dec 19:31:00 19:33:11 14° 62° (ENE) 19:35:22 437.432
CANX-2 18 Dec 19:34:58 19:38:27 25° 67° (ENE) 19:41:59 2200.000
DANDE 18 Dec 19:38:48 19:44:38 25° 67° (ENE) 19:51:12 436.750
CUTE-I 18 Dec 19:40:12 19:40:49 10° 273° (W) 19:41:26 437.470
PRISM 18 Dec 19:40:26 19:43:49 24° 294° (WNW) 19:47:09 437.425
HO-68 18 Dec 19:54:52 20:01:55 62° 68° (ENE) 20:08:59 435.675
DOVE 4 18 Dec 19:59:51 20:03:08 23° 67° (ENE) 20:06:27 437.250
COMPASS 1 18 Dec 20:02:49 20:06:35 33° 69° (ENE) 20:10:24 437.405
SEEDS 18 Dec 20:05:03 20:09:01 40° 71° (ENE) 20:13:02 437.485
CUTE 1.7 + AOD 2 18 Dec 20:05:23 20:09:28 47° 72° (ENE) 20:13:36 437.475
DX 1 18 Dec 20:09:22 20:12:01 16° 62° (ENE) 20:14:39 434.975-435.025
STRAND 1 18 Dec 20:15:41 20:20:17 35° 293° (WNW) 20:24:52 437.568
BRITE-PL 18 Dec 20:23:15 20:27:27 81° 76° (ENE) 20:31:36 437.365/2234.400
ISS 18 Dec 20:26:01 20:29:16 61° 29° (NNE) 20:32:31 145.825
DELFI C3 18 Dec 20:33:08 20:36:34 26° 68° (ENE) 20:40:00 145.870
Oscar 11 18 Dec 20:34:18 20:38:10 33° 69° (ENE) 20:42:05 145.826/435.025
CUBEBUG 2 18 Dec 20:39:23 20:42:41 23° 66° (ENE) 20:46:04 437.445
CUSAT 1 18 Dec 20:40:10 20:47:35 67° 78° (ENE) 20:56:02 437.405
CINEMA 3 18 Dec 20:40:52 20:44:42 37° 70° (ENE) 20:48:38 145.822/145.860
UKube-1 18 Dec 20:41:27 20:45:17 32° 68° (ENE) 20:49:08 .
HUMSAT D 18 Dec 20:43:17 20:44:35 11° 61° (ENE) 20:45:53 437.325/437.525
RS-15 18 Dec 20:51:20 21:02:34 70° 51° (NE) 21:14:17 29.354- 29.394
VELOX 1 18 Dec 20:54:35 20:57:18 16° 62° (ENE) 21:00:01 145.980
ZACube-1 18 Dec 20:59:17 21:02:49 27° 68° (ENE) 21:06:26 437.345
GOMX 1 18 Dec 21:01:11 21:05:15 54° 260° (W) 21:09:21 467.674
CUBESAT XI-V 18 Dec 21:02:34 21:02:47 10° 302° (WNW) 21:03:00 437.345
AAUSAT CUBESAT 2 18 Dec 21:04:13 21:08:22 59° 260° (W) 21:12:34 437.432
BEESAT 3 18 Dec 21:04:31 21:06:23 13° 35° (NE) 21:08:14 437.485
CANX-2 18 Dec 21:10:30 21:14:16 30° 264° (W) 21:18:06 2200.000
UWE-3 18 Dec 21:21:14 21:25:18 55° 73° (ENE) 21:29:29 435.000/436.395/437.385
DANDE 18 Dec 21:21:15 21:28:38 80° 262° (W) 21:37:16 436.750
FUNcube-1 18 Dec 21:26:05 21:30:07 52° 73° (ENE) 21:34:16 145.935
AISAT 18 Dec 21:34:48 21:38:56 40° 70° (ENE) 21:43:05 437.250
PCSat 18 Dec 21:36:39 21:39:37 15° 35° (NE) 21:42:33 145.827
DOVE 4 18 Dec 21:37:09 21:40:48 30° 264° (W) 21:44:30 437.250
COMPASS 1 18 Dec 21:39:01 21:42:22 23° 266° (W) 21:45:44 437.405
BEESAT 2 18 Dec 21:41:29 21:44:43 21° 42° (NE) 21:47:55 435.950
SO-50 18 Dec 21:41:35 21:45:58 53° 119° (ESE) 21:50:32 436.795
SEEDS 18 Dec 21:42:04 21:45:02 18° 268° (W) 21:48:01 437.485
CUTE 1.7 + AOD 2 18 Dec 21:43:02 21:45:40 16° 269° (W) 21:48:19 437.475
ANTELSAT 18 Dec 21:43:07 21:44:18 11° 88° (E) 21:45:30 437.575/2403.000
DX 1 18 Dec 21:43:34 21:47:50 54° 259° (W) 21:52:06 434.975-435.025
HO-68 18 Dec 21:44:12 21:50:04 27° 266° (W) 21:55:57 435.675
CUBEBUG 1 18 Dec 21:49:35 21:52:57 22° 66° (ENE) 21:56:19 437.445
ISS 18 Dec 22:03:15 22:05:34 18° 226° (SW) 22:07:52 145.825
DELFI C3 18 Dec 22:08:14 22:11:45 27° 265° (W) 22:15:19 145.870
50 SAT 18 Dec 22:10:08 22:14:08 79° 76° (ENE) 22:18:12 437.505
Oscar 11 18 Dec 22:10:55 22:14:23 23° 266° (W) 22:17:54 145.826/435.025
CUBEBUG 2 18 Dec 22:15:32 22:19:15 31° 264° (W) 22:23:04 437.445
QB50P1 18 Dec 22:15:34 22:17:48 14° 91° (E) 22:20:02 145.935-145.965
HUMSAT D 18 Dec 22:15:40 22:19:47 73° 258° (WSW) 22:23:58 437.325/437.525
TIGRISAT 18 Dec 22:17:47 22:21:39 25° 94° (E) 22:25:30 435.000
UKube-1 18 Dec 22:17:54 22:21:27 25° 265° (W) 22:25:02 .
CINEMA 3 18 Dec 22:19:10 22:22:06 19° 268° (W) 22:25:06 145.822/145.860
ESTCUBE 1 18 Dec 22:23:44 22:28:08 53° 72° (ENE) 22:32:34 437.505/2401.250
CUSAT 1 18 Dec 22:24:02 22:30:19 29° 273° (W) 22:37:13 437.405
VELOX 1 18 Dec 22:29:07 22:33:27 55° 259° (W) 22:37:49 145.980
ZACube-1 18 Dec 22:35:37 22:39:09 26° 265° (W) 22:42:46 437.345
AIST 2 18 Dec 22:35:55 22:39:48 32° 47° (NE) 22:43:38 435.215
BEESAT 3 18 Dec 22:41:08 22:45:19 74° 55° (NE) 22:49:27 437.485
POPSAT HIP 1 18 Dec 22:42:49 22:46:29 27° 96° (E) 22:50:07 437.405
UNISAT 6 18 Dec 22:45:19 22:49:52 47° 99° (E) 22:54:25 437.425
UWE-3 18 Dec 23:00:17 23:02:15 13° 270° (W) 23:04:16 435.000/436.395/437.385
RS-15 18 Dec 23:04:23 23:14:15 37° 253° (WSW) 23:24:31 29.354- 29.394
FUNcube-1 18 Dec 23:04:39 23:06:50 14° 270° (W) 23:09:03 145.935
SPROUT 18 Dec 23:05:31 23:09:18 32° 69° (ENE) 23:13:07 437.525
DANDE 18 Dec 23:06:45 23:11:21 17° 277° (W) 23:16:19 436.750
TISAT 1 18 Dec 23:08:57 23:12:49 37° 70° (ENE) 23:16:43 437.305
DUCHIFAT 1 18 Dec 23:11:34 23:15:45 56° 101° (E) 23:19:55 145.980
AISAT 18 Dec 23:12:29 23:15:43 20° 267° (W) 23:18:59 437.250
ANTELSAT 18 Dec 23:16:56 23:21:40 83° 284° (WNW) 23:26:24 437.575/2403.000
PCSat 18 Dec 23:18:41 23:24:06 66° 57° (ENE) 23:29:28 145.827
BEESAT 2 18 Dec 23:19:10 23:23:15 51° 241° (WSW) 23:27:16 435.950
BUGSAT 1 18 Dec 23:20:51 23:24:51 56° 101° (E) 23:28:51 437.445
SO-50 18 Dec 23:23:05 23:26:50 24° 319° (NW) 23:30:40 436.795
QB50P2 18 Dec 23:23:31 23:27:49 79° 103° (ESE) 23:32:05 145.880/145.840
CUBEBUG 1 18 Dec 23:25:04 23:29:07 37° 262° (W) 23:33:10 437.445
BEESAT 18 Dec 23:26:03 23:27:34 11° 58° (ENE) 23:29:06 436.000
POLYITAN 1 18 Dec 23:31:36 23:35:53 85° 284° (WNW) 23:40:11 437.675
NANOSAT C BR1 18 Dec 23:35:44 23:39:59 78° 285° (WNW) 23:44:14 145.865
YUBILEINY 18 Dec 23:37:30 23:45:32 43° 87° (E) 23:53:33 435.215
QB50P1 18 Dec 23:49:51 23:54:01 54° 287° (WNW) 23:58:11 145.935-145.965
AUBIESAT-1 18 Dec 23:50:15 23:53:02 15° 55° (NE) 23:55:50 437.475
TIGRISAT 18 Dec 23:54:10 23:58:27 37° 291° (WNW) 00:02:46 435.000
ESTCUBE 1 19 Dec 00:02:30 00:05:19 16° 269° (W) 00:08:09 437.505/2401.250
M-CUBED/EXP-1 PRIME 19 Dec 00:12:53 00:16:51 26° 60° (ENE) 00:20:53 437.505
AIST 2 19 Dec 00:14:36 00:18:23 30° 245° (WSW) 00:22:06 435.215
POPSAT HIP 1 19 Dec 00:18:42 00:22:19 28° 292° (WNW) 00:25:57 437.405
BEESAT 3 19 Dec 00:21:31 00:22:53 11° 252° (WSW) 00:24:16 437.485
UNISAT 6 19 Dec 00:22:53 00:26:19 21° 296° (WNW) 00:29:46 437.425
ITUPSAT 1 19 Dec 00:34:15 00:38:51 48° 71° (ENE) 00:43:29 437.325
SWISSCUBE 19 Dec 00:34:34 00:39:14 53° 71° (ENE) 00:43:54 437.505
SPROUT 19 Dec 00:41:58 00:45:25 24° 266° (W) 00:48:54 437.525
O/OREOS (USA 219) 19 Dec 00:43:36 00:47:28 30° 104° (ESE) 00:51:20 437.305
TISAT 1 19 Dec 00:45:43 00:48:47 20° 267° (W) 00:51:52 437.305
DUCHIFAT 1 19 Dec 00:48:47 00:51:10 15° 297° (WNW) 00:53:33 145.980
ANTELSAT 19 Dec 00:56:41 00:57:41 11° 302° (WNW) 00:58:42 437.575/2403.000
BUGSAT 1 19 Dec 00:57:55 00:59:54 13° 297° (WNW) 01:01:54 437.445
BEESAT 19 Dec 00:59:51 01:04:39 87° 75° (ENE) 01:09:29 436.000
KKS-1 19 Dec 01:00:31 01:03:39 19° 64° (ENE) 01:06:47 437.445
QB50P2 19 Dec 01:01:50 01:03:06 11° 300° (WNW) 01:04:23 145.880/145.840
STARS 19 Dec 01:02:15 01:04:27 14° 61° (ENE) 01:06:38 437.465
PCSat 19 Dec 01:03:18 01:06:57 19° 255° (WSW) 01:10:36 145.827
Oscar 19 19 Dec 01:05:50 01:10:05 25° 94° (E) 01:14:19 437.125/150
ITAMSAT 1 19 Dec 01:19:07 01:20:53 12° 88° (E) 01:22:38 435.822/435.867
AUBIESAT-1 19 Dec 01:22:31 01:27:19 81° 252° (WSW) 01:32:15 437.475
YUBILEINY 19 Dec 01:34:02 01:42:17 44° 287° (WNW) 01:50:32 435.215
M-CUBED/EXP-1 PRIME 19 Dec 01:47:00 01:51:35 44° 257° (WSW) 01:56:18 437.505
ITUPSAT 1 19 Dec 02:13:32 02:17:00 20° 267° (W) 02:20:28 437.325
SWISSCUBE 19 Dec 02:14:12 02:17:24 18° 268° (W) 02:20:37 437.505
O/OREOS (USA 219) 19 Dec 02:22:56 02:26:49 29° 302° (WNW) 02:30:44 437.305
KKS-1 19 Dec 02:35:44 02:39:58 45° 261° (W) 02:44:14 437.445
STARS 19 Dec 02:36:03 02:40:23 66° 258° (WSW) 02:44:46 437.465
Gurwin Techsat 1B 19 Dec 02:39:43 02:44:47 43° 98° (E) 02:49:48 435.225
BEESAT 19 Dec 02:42:21 02:43:08 10° 272° (W) 02:43:54 436.000
Oscar 19 19 Dec 02:44:41 02:49:35 43° 291° (WNW) 02:54:27 437.125/150
